Home   Weather   Åndalsnes   Past weeks
Flag for Norway

Past Weather in Åndalsnes, Norway — January 2020

Currently: 34 °F. Scattered showers. Partly sunny. (Weather station: Aro, Norway). See more current weather

January 2020 Weather in Åndalsnes — Graph

°F

High & Low Weather Summary for January 2020

 TemperatureHumidityPressure
High55 °F (Jan 2, 9:20 am)100% (Jan 3, 3:20 pm)30.42 "Hg (Jan 3, 3:20 pm)
Low28 °F (Jan 30, 10:20 pm)40% (Jan 11, 2:50 am)28.80 "Hg (Jan 15, 2:50 am)
Average40 °F78%29.51 "Hg
* Reported Jan 1 12:20 am — Jan 31 11:50 pm, Åndalsnes. Weather by CustomWeather, © 2021

Note: Actual official high and low records may vary slightly from our data, if they occured in-between our weather recording intervals... More about our weather records

Åndalsnes Weather History for January 1, 2020

Scroll right to see more
 ConditionsComfort  
Time TempWeatherWind HumidityBarometerVisibility
12:20 am
Wed, Jan 1
46 °FPassing clouds.33 mph71%29.89 "HgN/A
12:50 am46 °FPassing clouds.32 mph71%29.89 "HgN/A
1:20 am48 °FPartly cloudy.31 mph62%29.86 "HgN/A
1:50 am48 °FPassing clouds.30 mph62%29.86 "HgN/A
2:20 am46 °FPassing clouds.36 mph66%29.86 "HgN/A
2:50 am46 °FPassing clouds.39 mph66%29.83 "HgN/A
3:20 am48 °FPassing clouds.36 mph62%29.86 "HgN/A
3:50 am48 °FPassing clouds.39 mph62%29.86 "HgN/A
4:20 am48 °FOvercast.36 mph58%29.86 "HgN/A
4:50 am46 °FPassing clouds.36 mph66%29.86 "HgN/A
5:20 am46 °FPassing clouds.35 mph66%29.86 "HgN/A
5:50 am48 °FPassing clouds.32 mph62%29.83 "HgN/A
6:20 am46 °FCool.31 mph66%29.83 "HgN/A
7:20 am48 °FPassing clouds.31 mph62%29.83 "HgN/A
7:50 am48 °FPassing clouds.31 mph62%29.83 "HgN/A
8:20 am48 °FPassing clouds.32 mph62%29.80 "HgN/A
8:50 am48 °FPassing clouds.32 mph66%29.80 "HgN/A
9:20 am48 °FPassing clouds.28 mph62%29.83 "HgN/A
10:20 am46 °FPassing clouds.25 mph71%29.80 "HgN/A
10:50 am46 °FPassing clouds.18 mph66%29.77 "HgN/A
11:20 am46 °FPassing clouds.16 mph66%29.77 "HgN/A
11:50 am48 °FScattered clouds.16 mph62%29.77 "HgN/A
12:20 pm48 °FPartly sunny.13 mph62%29.77 "HgN/A
12:50 pm50 °FPartly sunny.21 mph58%29.74 "HgN/A
1:20 pm50 °FPartly sunny.26 mph62%29.74 "HgN/A
1:50 pm50 °FPartly sunny.28 mph62%29.74 "HgN/A
2:20 pm50 °FPartly sunny.29 mph62%29.71 "HgN/A
2:50 pm50 °FSprinkles. Partly sunny.29 mph62%29.71 "HgN/A
3:20 pm48 °FPartly cloudy.20 mph66%29.71 "HgN/A
3:50 pm50 °FSprinkles. Passing clouds.20 mph58%29.71 "HgN/A
4:20 pm48 °FScattered showers. Passing clouds.21 mph62%29.71 "HgN/A
4:50 pm46 °FRain. Partly cloudy.21 mph76%29.71 "Hg6 mi
5:20 pm46 °FRain. Partly cloudy.21 mph76%29.71 "Hg6 mi
5:50 pm46 °FRain. Partly cloudy.24 mph82%29.71 "Hg6 mi
6:20 pm45 °FRain. Partly cloudy.24 mph87%29.71 "Hg6 mi
6:50 pm45 °FRain. Partly cloudy.20 mph87%29.71 "Hg6 mi
7:50 pm45 °FMixture of precip. Mostly cloudy.16 mph87%29.71 "Hg4 mi
8:20 pm45 °FMixture of precip. Mostly cloudy.12 mph87%29.71 "Hg4 mi
8:50 pm45 °FRain. Mostly cloudy.15 mph87%29.68 "Hg5 mi
9:20 pm45 °FRain. Partly cloudy.14 mph87%29.68 "Hg5 mi
10:20 pm45 °FLight rain. Partly cloudy.13 mph81%29.65 "HgN/A
10:50 pm45 °FSprinkles. Mostly cloudy.12 mph81%29.62 "HgN/A
11:20 pm45 °FSprinkles. Passing clouds.15 mph81%29.62 "HgN/A
11:50 pm45 °FPassing clouds.14 mph81%29.59 "HgN/A
Weather by CustomWeather, © 2021

See weather overview